| time (UTC) | temp F | wind direction | speed knots | gust knots | rain 1hr in | rain 24hr in | rain mn in | humidity % | barometer mb |
| 20260901201339 | 79 | 221 | 0.9 | 2.6 | 0.00 | 0.00 | 0.00 | 60 | 1020.4 |
| 20260901200345 | 79 | 221 | 0.9 | 1.7 | 0.00 | 0.00 | 0.00 | 60 | 1020.5 |
| 20260901195344 | 79 | 221 | 0.9 | 2.6 | 0.00 | 0.00 | 0.00 | 60 | 1020.5 |
| 20260901194345 | 79 | 221 | 0.9 | 3.5 | 0.00 | 0.00 | 0.00 | 60 | 1020.3 |
| 20260901193345 | 80 | 221 | 1.7 | 2.6 | 0.00 | 0.00 | 0.00 | 59 | 1020.2 |
| 20260901192338 | 80 | 221 | 0.9 | 3.5 | 0.00 | 0.00 | 0.00 | 59 | 1020.2 |
| 20260901191338 | 80 | 224 | 0.9 | 2.6 | 0.00 | 0.00 | 0.00 | 58 | 1020.1 |
| 20260901190341 | 80 | 224 | 1.7 | 3.5 | 0.00 | 0.00 | 0.00 | 58 | 1019.8 |
| 20260901185340 | 80 | 224 | 2.6 | 4.3 | 0.00 | 0.00 | 0.00 | 57 | 1019.7 |
| 20260901184344 | 81 | 235 | 1.7 | 4.3 | 0.00 | 0.00 | 0.00 | 57 | 1019.7 |
| 20260901183346 | 81 | 235 | 1.7 | 2.6 | 0.00 | 0.00 | 0.00 | 56 | 1019.5 |
| 20260901182345 | 81 | 235 | 1.7 | 2.6 | 0.00 | 0.00 | 0.00 | 56 | 1019.4 |
| 20260901181347 | 81 | 235 | 0.9 | 4.3 | 0.00 | 0.00 | 0.00 | 56 | 1019.5 |
| 20260901180347 | 81 | 232 | 2.6 | 4.3 | 0.00 | 0.00 | 0.00 | 55 | 1019.9 |
| 20260901175400 | 82 | 231 | 2.6 | 6.1 | 0.00 | 0.00 | 0.00 | 55 | 1020.0 |
| 20260901174358 | 82 | 238 | 0.9 | 5.2 | 0.00 | 0.00 | 0.00 | 55 | 1020.2 |
| 20260901173354 | 82 | 243 | 3.5 | 7.0 | 0.00 | 0.00 | 0.00 | 55 | 1020.1 |
| 20260901172341 | 81 | 204 | 2.6 | 7.8 | 0.00 | 0.00 | 0.00 | 56 | 1020.4 |
| 20260901171359 | 81 | 231 | 3.5 | 9.6 | 0.00 | 0.00 | 0.00 | 55 | 1020.3 |
| 20260901170401 | 82 | 236 | 4.3 | 7.0 | 0.00 | 0.00 | 0.00 | 56 | 1020.5 |
| 20260901165352 | 82 | 233 | 2.6 | 7.0 | 0.00 | 0.00 | 0.00 | 58 | 1020.3 |
| 20260901164352 | 82 | 185 | 2.6 | 6.1 | 0.00 | 0.00 | 0.00 | 57 | 1020.4 |
| 20260901163352 | 82 | 208 | 2.6 | 7.8 | 0.00 | 0.00 | 0.00 | 58 | 1020.5 |
| 20260901162343 | 82 | 199 | 3.5 | 7.8 | 0.00 | 0.00 | 0.00 | 57 | 1020.8 |
| 20260901161341 | 83 | 222 | 3.5 | 7.8 | 0.00 | 0.00 | 0.00 | 56 | 1020.6 |
| 20260901160354 | 83 | 254 | 2.6 | 6.1 | 0.00 | 0.00 | 0.00 | 55 | 1020.6 |
| 20260901155348 | 83 | 270 | 2.6 | 10.4 | 0.00 | 0.00 | 0.00 | 55 | 1020.6 |
| 20260901154343 | 83 | 213 | 4.3 | 10.4 | 0.00 | 0.00 | 0.00 | 56 | 1020.7 |
| 20260901153341 | 82 | 202 | 2.6 | 8.7 | 0.00 | 0.00 | 0.00 | 58 | 1020.8 |
| 20260901152341 | 82 | 226 | 3.5 | 7.8 | 0.00 | 0.00 | 0.00 | 60 | 1020.6 |
| 20260901151400 | 82 | 220 | 6.1 | 10.4 | 0.00 | 0.00 | 0.00 | 61 | 1020.8 |
| 20260901150352 | 82 | 229 | 6.1 | 11.3 | 0.00 | 0.00 | 0.00 | 61 | 1020.9 |
| 20260901145403 | 82 | 214 | 4.3 | 9.6 | 0.00 | 0.00 | 0.00 | 60 | 1021.1 |
| 20260901144355 | 83 | 127 | 3.5 | 9.6 | 0.00 | 0.00 | 0.00 | 58 | 1020.9 |
| 20260901143352 | 83 | 254 | 2.6 | 6.1 | 0.00 | 0.00 | 0.00 | 57 | 1021.0 |
| 20260901142346 | 83 | 245 | 3.5 | 7.8 | 0.00 | 0.00 | 0.00 | 56 | 1021.0 |
| 20260901141349 | 83 | 203 | 1.7 | 8.7 | 0.00 | 0.00 | 0.00 | 56 | 1020.7 |
| 20260901140342 | 83 | 118 | 2.6 | 9.6 | 0.00 | 0.00 | 0.00 | 55 | 1020.6 |
| 20260901135356 | 84 | 204 | 2.6 | 11.3 | 0.00 | 0.00 | 0.00 | 55 | 1021.1 |
| 20260901134350 | 84 | 140 | 5.2 | 8.7 | 0.00 | 0.00 | 0.00 | 55 | 1020.9 |
| 20260901133344 | 85 | 143 | 6.1 | 9.6 | 0.00 | 0.00 | 0.00 | 53 | 1021.2 |
| 20260901132355 | 85 | 48 | 1.7 | 8.7 | 0.00 | 0.00 | 0.00 | 52 | 1021.4 |
| 20260901131351 | 85 | 117 | 2.6 | 7.8 | 0.00 | 0.00 | 0.00 | 55 | 1021.6 |
| 20260901130344 | 84 | 204 | 3.5 | 7.8 | 0.00 | 0.00 | 0.00 | 56 | 1021.7 |
| 20260901125344 | 84 | 231 | 4.3 | 10.4 | 0.00 | 0.00 | 0.00 | 57 | 1021.7 |
| 20260901124359 | 84 | 128 | 5.2 | 13.9 | 0.00 | 0.00 | 0.00 | 56 | 1021.6 |
| 20260901123342 | 85 | 176 | 4.3 | 13.0 | 0.00 | 0.00 | 0.00 | 56 | 1021.9 |
| 20260901122340 | 84 | 182 | 5.2 | 10.4 | 0.00 | 0.00 | 0.00 | 56 | 1021.8 |
| 20260901121359 | 83 | 177 | 7.8 | 15.6 | 0.00 | 0.00 | 0.00 | 56 | 1022.0 |
| 20260901120354 | 84 | 157 | 3.5 | 15.6 | 0.00 | 0.00 | 0.00 | 57 | 1022.0 |
| 20260901115347 | 85 | 144 | 7.0 | 13.0 | 0.00 | 0.00 | 0.00 | 54 | 1022.0 |
| 20260901114341 | 85 | 106 | 2.6 | 9.6 | 0.00 | 0.00 | 0.00 | 53 | 1022.1 |
| 20260901113357 | 85 | 328 | 0.9 | 14.8 | 0.00 | 0.00 | 0.00 | 53 | 1022.1 |
| 20260901112348 | 85 | 154 | 2.6 | 11.3 | 0.00 | 0.00 | 0.00 | 52 | 1022.3 |
| 20260901111340 | 84 | 227 | 7.0 | 14.8 | 0.00 | 0.00 | 0.00 | 52 | 1022.2 |
| 20260901110352 | 85 | 200 | 5.2 | 10.4 | 0.00 | 0.00 | 0.00 | 52 | 1022.2 |
| 20260901105346 | 85 | 147 | 2.6 | 8.7 | 0.00 | 0.00 | 0.00 | 50 | 1022.3 |
| 20260901104400 | 84 | 239 | 3.5 | 9.6 | 0.00 | 0.00 | 0.00 | 49 | 1022.3 |
| 20260901103400 | 84 | 314 | 3.5 | 13.0 | 0.00 | 0.00 | 0.00 | 50 | 1022.4 |
| 20260901102350 | 84 | 147 | 3.5 | 9.6 | 0.00 | 0.00 | 0.00 | 50 | 1022.3 |
| 20260901101350 | 84 | 222 | 3.5 | 9.6 | 0.00 | 0.00 | 0.00 | 48 | 1022.5 |
| 20260901100348 | 84 | 21 | 2.6 | 7.0 | 0.00 | 0.00 | 0.00 | 47 | 1022.2 |
| 20260901095358 | 83 | 209 | 1.7 | 9.6 | 0.00 | 0.00 | 0.00 | 48 | 1022.3 |
| 20260901094351 | 83 | 227 | 3.5 | 7.0 | 0.00 | 0.00 | 0.00 | 47 | 1022.2 |
| 20260901093352 | 83 | 240 | 2.6 | 6.1 | 0.00 | 0.00 | 0.00 | 49 | 1022.1 |
| 20260901092349 | 83 | 216 | 4.3 | 7.0 | 0.00 | 0.00 | 0.00 | 49 | 1022.0 |
| 20260901091344 | 83 | 114 | 0.0 | 4.3 | 0.00 | 0.00 | 0.00 | 51 | 1022.0 |
| 20260901090402 | 82 | 214 | 1.7 | 6.1 | 0.00 | 0.00 | 0.00 | 52 | 1021.8 |
| 20260901085352 | 82 | 143 | 0.9 | 4.3 | 0.00 | 0.00 | 0.00 | 54 | 1021.7 |
| 20260901084345 | 81 | 57 | 1.7 | 3.5 | 0.00 | 0.00 | 0.00 | 57 | 1021.6 |
| 20260901083345 | 80 | 57 | 0.9 | 2.6 | 0.00 | 0.00 | 0.00 | 61 | 1021.5 |
| 20260901082342 | 79 | 58 | 0.9 | 2.6 | 0.00 | 0.00 | 0.00 | 64 | 1021.6 |
| 20260901081342 | 79 | 55 | 0.0 | 1.7 | 0.00 | 0.00 | 0.00 | 67 | 1021.5 |
| 20260901080342 | 78 | 55 | 0.0 | 1.7 | 0.00 | 0.00 | 0.00 | 69 | 1021.5 |
| 20260901075357 | 78 | 56 | 0.0 | 1.7 | 0.00 | 0.00 | 0.00 | 72 | 1021.4 |
| 20260901074348 | 77 | 56 | 0.0 | 1.7 | 0.00 | 0.00 | 0.00 | 74 | 1021.6 |
| 20260901073351 | 76 | 56 | 0.9 | 3.5 | 0.00 | 0.00 | 0.00 | 77 | 1021.7 |
| 20260901072341 | 75 | 53 | 0.0 | 3.5 | 0.00 | 0.00 | 0.00 | 79 | 1021.6 |
| 20260901071340 | 75 | 49 | 0.9 | 2.6 | 0.00 | 0.00 | 0.00 | 80 | 1021.4 |
| 20260901070345 | 74 | 50 | 0.0 | 2.6 | 0.00 | 0.00 | 0.00 | 80 | 1021.6 |
| 20260901065338 | 74 | 50 | 0.0 | 0.0 | 0.00 | 0.00 | 0.00 | 81 | 1021.6 |
| 20260901064359 | 73 | 50 | 0.0 | 0.0 | 0.00 | 0.00 | 0.00 | 82 | 1021.7 |
| 20260901063343 | 73 | 50 | 0.0 | 1.7 | 0.00 | 0.00 | 0.00 | 82 | 1021.7 |
| 20260901062358 | 72 | 50 | 0.0 | 0.0 | 0.00 | 0.00 | 0.00 | 82 | 1021.7 |
| 20260901061359 | 72 | 50 | 0.0 | 1.7 | 0.00 | 0.00 | 0.00 | 82 | 1021.7 |
| 20260901060340 | 72 | 51 | 0.0 | 1.7 | 0.00 | 0.00 | 0.00 | 82 | 1021.6 |
| 20260901055342 | 72 | 51 | 0.9 | 1.7 | 0.00 | 0.00 | 0.00 | 83 | 1021.5 |
| 20260901054347 | 72 | 51 | 0.9 | 1.7 | 0.00 | 0.00 | 0.00 | 83 | 1021.5 |
| 20260901053343 | 72 | 51 | 0.0 | 1.7 | 0.00 | 0.00 | 0.00 | 82 | 1021.4 |
| 20260901052338 | 72 | 51 | 0.0 | 0.9 | 0.00 | 0.00 | 0.00 | 82 | 1021.4 |
| 20260901051357 | 71 | 51 | 0.0 | 0.9 | 0.00 | 0.00 | 0.00 | 82 | 1021.3 |
| 20260901050338 | 71 | 51 | 0.0 | 0.9 | 0.00 | 0.00 | 0.00 | 82 | 1021.3 |
| 20260901045357 | 72 | 51 | 0.0 | 0.0 | 0.00 | 0.00 | 0.00 | 82 | 1021.3 |
| 20260901044342 | 72 | 51 | 0.0 | 0.0 | 0.00 | 0.00 | 0.00 | 81 | 1021.3 |
| 20260901043345 | 72 | 51 | 0.0 | 0.9 | 0.00 | 0.00 | 0.00 | 81 | 1021.5 |
| 20260901042340 | 72 | 51 | 0.0 | 0.9 | 0.00 | 0.00 | 0.00 | 81 | 1021.5 |
| 20260901041341 | 72 | 51 | 0.0 | 0.9 | 0.00 | 0.00 | 0.00 | 81 | 1021.5 |
| 20260901040344 | 72 | 51 | 0.0 | 0.0 | 0.00 | 0.00 | 0.00 | 81 | 1021.4 |
| 20260901035359 | 72 | 51 | 0.0 | 0.0 | 0.00 | 0.00 | 0.00 | 81 | 1021.5 |
| 20260901034356 | 72 | 51 | 0.0 | 0.0 | 0.00 | 0.00 | 0.00 | 81 | 1021.5 |
| 20260901033352 | 72 | 51 | 0.0 | 0.0 | 0.00 | 0.00 | 0.00 | 81 | 1021.6 |
| 20260901032346 | 72 | 51 | 0.0 | 0.9 | 0.00 | 0.00 | 0.00 | 80 | 1021.6 |
| 20260901031346 | 73 | 51 | 0.9 | 1.7 | 0.00 | 0.00 | 0.00 | 80 | 1021.7 |
| 20260901030349 | 73 | 50 | 0.0 | 1.7 | 0.00 | 0.00 | 0.00 | 79 | 1021.6 |
| 20260901025343 | 73 | 50 | 0.9 | 2.6 | 0.00 | 0.00 | 0.00 | 79 | 1021.8 |
| 20260901024356 | 73 | 50 | 0.9 | 3.5 | 0.00 | 0.00 | 0.00 | 78 | 1021.8 |
| 20260901023340 | 73 | 98 | 0.9 | 2.6 | 0.00 | 0.00 | 0.00 | 78 | 1021.9 |
| 20260901022340 | 73 | 99 | 0.9 | 2.6 | 0.00 | 0.00 | 0.00 | 78 | 1022.0 |
| 20260901021341 | 73 | 99 | 0.0 | 1.7 | 0.00 | 0.00 | 0.00 | 78 | 1022.3 |
| 20260901020343 | 74 | 100 | 0.0 | 2.6 | 0.00 | 0.00 | 0.00 | 77 | 1022.3 |
| 20260901015339 | 74 | 100 | 0.0 | 0.9 | 0.00 | 0.00 | 0.00 | 77 | 1022.4 |
| 20260901014359 | 74 | 100 | 0.0 | 0.9 | 0.00 | 0.00 | 0.00 | 77 | 1022.4 |
| 20260901013338 | 74 | 100 | 0.0 | 1.7 | 0.00 | 0.00 | 0.00 | 77 | 1022.4 |
| 20260901012349 | 74 | 100 | 0.0 | 3.5 | 0.00 | 0.00 | 0.00 | 76 | 1022.4 |
| 20260901011347 | 74 | 100 | 0.9 | 3.5 | 0.00 | 0.00 | 0.00 | 75 | 1022.5 |
| 20260901010342 | 74 | 100 | 0.9 | 1.7 | 0.00 | 0.00 | 0.00 | 76 | 1022.5 |
| 20260901005359 | 74 | 100 | 0.0 | 1.7 | 0.00 | 0.00 | 0.00 | 76 | 1022.5 |
| 20260901004355 | 74 | 100 | 0.9 | 2.6 | 0.00 | 0.00 | 0.00 | 75 | 1022.5 |
| 20260901003352 | 74 | 100 | 0.0 | 3.5 | 0.00 | 0.00 | 0.00 | 76 | 1022.6 |
| 20260901002345 | 75 | 99 | 1.7 | 3.5 | 0.00 | 0.00 | 0.00 | 75 | 1022.5 |
| 20260901001352 | 75 | 98 | 1.7 | 2.6 | 0.00 | 0.00 | 0.00 | 75 | 1022.5 |
| 20260901000351 | 75 | 98 | 0.0 | 1.7 | 0.00 | 0.00 | 0.00 | 75 | 1022.6 |
| 20260831235340 | 75 | 98 | 0.0 | 1.7 | 0.00 | 0.00 | 0.00 | 75 | 1022.6 |
| 20260831234341 | 75 | 98 | 0.9 | 2.6 | 0.00 | 0.00 | 0.00 | 75 | 1022.7 |
| 20260831233343 | 75 | 97 | 0.0 | 1.7 | 0.00 | 0.00 | 0.00 | 75 | 1022.6 |
| 20260831232357 | 75 | 98 | 1.7 | 2.6 | 0.00 | 0.00 | 0.00 | 75 | 1022.6 |
| 20260831231339 | 76 | 98 | 0.9 | 1.7 | 0.00 | 0.00 | 0.00 | 75 | 1022.5 |
| 20260831230340 | 76 | 98 | 0.0 | 0.9 | 0.00 | 0.00 | 0.00 | 75 | 1022.6 |
| 20260831225357 | 76 | 98 | 0.0 | 2.6 | 0.00 | 0.00 | 0.00 | 75 | 1022.6 |
| 20260831224356 | 76 | 97 | 2.6 | 4.3 | 0.00 | 0.00 | 0.00 | 74 | 1022.7 |
| 20260831223351 | 76 | 90 | 2.6 | 3.5 | 0.00 | 0.00 | 0.00 | 74 | 1022.5 |
| 20260831222343 | 77 | 89 | 0.9 | 2.6 | 0.00 | 0.00 | 0.00 | 74 | 1022.5 |
| 20260831221344 | 77 | 89 | 0.9 | 3.5 | 0.00 | 0.00 | 0.00 | 74 | 1022.4 |
| 20260831220343 | 77 | 89 | 1.7 | 2.6 | 0.00 | 0.00 | 0.00 | 74 | 1022.6 |
| 20260831215340 | 78 | 89 | 0.0 | 2.6 | 0.00 | 0.00 | 0.00 | 74 | 1022.5 |
| 20260831214342 | 78 | 89 | 0.0 | 1.7 | 0.00 | 0.00 | 0.00 | 73 | 1022.4 |
| 20260831213347 | 78 | 89 | 0.0 | 0.9 | 0.00 | 0.00 | 0.00 | 73 | 1022.4 |
| 20260831212339 | 78 | 89 | 0.0 | 0.9 | 0.00 | 0.00 | 0.00 | 73 | 1022.4 |
| 20260831211343 | 78 | 89 | 0.0 | 0.9 | 0.00 | 0.00 | 0.00 | 72 | 1022.2 |
| 20260831210346 | 78 | 89 | 0.0 | 2.6 | 0.00 | 0.00 | 0.00 | 73 | 1022.3 |
| 20260831205358 | 78 | 89 | 0.0 | 2.6 | 0.00 | 0.00 | 0.00 | 72 | 1022.2 |
| 20260831204340 | 78 | 89 | 0.0 | 1.7 | 0.00 | 0.00 | 0.00 | 72 | 1022.2 |
| 20260831203338 | 78 | 89 | 0.9 | 2.6 | 0.00 | 0.00 | 0.00 | 72 | 1022.0 |
| 20260831202357 | 78 | 89 | 0.0 | 1.7 | 0.00 | 0.00 | 0.00 | 71 | 1022.0 |